Location: La Bastide
(43.1661°N, 1.2755°E)
Time: 03:17:55
(UTC+00:00)

Tiangong - Pass Details

Date: 16 February 2026
Orbit: 382 x 391 km, 41.5° (Epoch: 6 March)

Event Time Altitude Azimuth Distance (km) Brightness Sun altitude
Rises 19:06:57 0° 271° (W) 2,254 3.5 -18.8°
Reaches altitude 10° 19:09:03 10° 267° (W) 1,399 1.9 -19.2°
Enters shadow 19:12:04 57° 196° (SSW) 452 -1.8 -19.7°
